www.pogodaiklimat.ru

Погода и климат >> Архив погоды >> Узбекистан >> Ташкент


АРХИВ ПОГОДЫ в Ташкенте

Время (UTC), дата Ветер
(напр.,м/с)
 
Видим.   Явления Облачность Т
(С)
Тd
(С)
f
(%)
Тe
(С)
Тes
(С)
Комфортность P
(гПа)
Po
(гПа)
Тmin
(С)
Tmax
(С)
R
(мм)
R24
(мм)
S
(см)
03 14.08 ЮВ 1 10 км ясно +26.6 +12.3 41 +28 +33 жарко 1005.8 951.8
06 14.08 В 1 10 км ясно +31.6 +10.9 28 +32 +50 жарко 1005.1 952.0 +20.8
09 14.08 ЮЗ 2 10 км ясно +35.3 +8.9 20 +34 +49 очень
жарко
1003.8 951.4
12 14.08 ЮЗ 2 10 км ясно +36.4 +8.9 19 +35 +39 очень
жарко
1002.7 950.5
15 14.08 Ю 2 10 км ясно +31.3 +10.2 27 +31 +31 жарко 1003.8 950.7 +36.8
18 14.08 В 1 10 км ясно +26.7 +13.1 43 +28 +28 жарко 1005.4 951.5 +36.8
21 14.08 СВ 1 10 км ясно +22.8 +12.3 52 +26 +26 жарко 1005.9 951.3
00 15.08 СВ 2 10 км ясно +21.9 +12.8 56 +24 +24 комфорт 1006.3 951.5
03 15.08 Ю 1 10 км ясно +26.4 +11.3 39 +28 +33 жарко 1006.9 952.9
06 15.08 ЮЗ 1 10 км ясно +32.6 +8.5 23 +31 +50 жарко 1005.8 952.9 +21.3
09 15.08 ЮЗ 1 10 км ясно +35.6 +3.8 14 +33 +50 жарко 1004.7 952.3
12 15.08 ЮЗ 1 10 км ясно +37.0 +3.8 13 +34 +38 очень
жарко
1003.5 951.4
15 15.08 ЮЗ 1 10 км ясно +30.5 +6.8 23 +29 +29 жарко 1005.1 951.8 +37.3
18 15.08 В 1 10 км ясно +24.8 +10.4 40 +26 +26 жарко 1006.4 952.2 +37.3
21 15.08 СВ 1 10 км ясно +22.0 +10.3 47 +24 +24 комфорт 1006.7 951.9
00 16.08 СВ 1 10 км ясно +20.3 +10.2 52 +23 +23 комфорт 1007.5 952.3
03 16.08 В 1 10 км ясно +27.6 +9.4 32 +28 +33 жарко 1007.1 953.3
06 16.08 ЮЗ 1 10 км ясно +32.6 +6.4 20 +31 +49 жарко 1006.9 953.9 +19.7
09 16.08 ЮЗ 2 10 км ясно +36.3 +8.1 18 +34 +49 очень
жарко
1006.1 953.7
12 16.08 ЮЗ 2 50 км ясно +37.1 +3.2 12 +34 +38 очень
жарко
1004.7 952.5
15 16.08 С 1 10 км ясно +31.5 +6.2 20 +30 +30 жарко 1005.0 951.9 +37.6
18 16.08 ЮВ 3 10 км ясно +27.9 +6.8 26 +27 +27 жарко 1007.4 953.5 +37.6
21 16.08 З 2 10 км ясно +24.6 +6.8 32 +25 +25 комфорт 1007.8 953.3
00 17.08 С 2 50 км ясно +20.5 +8.0 44 +22 +22 комфорт 1008.1 952.9
03 17.08 СВ 1 10 км ясно +24.2 +9.5 39 +25 +30 комфорт 1007.4 952.9
06 17.08 В 1 10 км ясно +29.3 +11.1 32 +30 +48 жарко 1006.1 952.6 +19.6
09 17.08 З 1 10 км 1/0
[Ci fib]
+33.8 +11.3 25 +33 +50 жарко 1003.7 951.1
12 17.08 Ю 1 10 км 3/0
[Ac trans]
+34.3 +11.0 24 +34 +37 очень
жарко
1002.0 949.6
15 17.08 Ю 1 10 км 4/0
[Ac trans Ci fib]
+29.6 +8.6 27 +29 +29 жарко 1003.0 949.7 +36.0
18 17.08 В 1 10 км ясно +25.8 +12.1 42 +27 +27 жарко 1003.3 949.4 +36.0
21 17.08 СВ 1 10 км ясно +22.8 +10.0 44 +25 +25 комфорт 1003.0 948.5
00 18.08 штиль 0 10 км ясно +21.4 +13.2 60 +24 +24 комфорт 1003.2 948.5
03 18.08 В 3 10 км ясно +23.6 +9.4 40 +24 +28 комфорт 1003.7 949.4
06 18.08 штиль 0 10 км ясно +29.5 +6.7 24 +28 +49 жарко 1002.9 949.5 +21.0
09 18.08 ЮЗ 2 10 км 1/1 1000 м
[Cu hum]
+34.0 +5.3 17 +32 +45 жарко 1001.3 948.8
12 18.08 ЮЗ 2 10 км ясно +35.5 +4.0 14 +33 +36 жарко 1000.5 948.3
15 18.08 Ю 1 10 км 1/1 1000 м
[Cu hum]
+29.9 +9.9 29 +30 +30 жарко 1002.1 948.9 +35.6
18 18.08 СВ 1 10 км 4/4 1000 м
[Cu hum]
+23.8 +13.1 51 +26 +26 жарко 1003.5 949.3 +35.6
21 18.08 СВ 1 10 км 1/1 1000 м
[Cu hum]
+21.5 +9.9 48 +23 +23 комфорт 1003.8 949.1
00 19.08 СВ 2 10 км 3/3 1000 м
[Cu hum Ac trans]
+20.1 +9.4 50 +22 +22 комфорт 1004.3 949.3
03 19.08 СВ 1 50 км ясно +26.0 +8.5 33 +26 +31 жарко 1004.1 950.1
06 19.08 ЮЗ 1 10 км ясно +32.5 +7.6 21 +31 +49 жарко 1003.6 950.7 +19.3
09 19.08 ЮЗ 1 50 км 1/1 600 м
[Cu hum]
+35.0 +2.5 13 +32 +47 жарко 1002.5 950.1
12 19.08 ЮВ 1 50 км ясно +35.2 +4.8 15 +32 +37 жарко 1001.5 949.1
15 19.08 СЗ 1 10 км ясно +29.3 +5.8 23 +28 +28 жарко 1002.5 949.2 +35.9
18 19.08 СВ 1 10 км ясно +24.3 +10.4 41 +25 +25 комфорт 1004.0 949.8 +35.9
21 19.08 С 1 10 км ясно +21.2 +9.7 48 +23 +23 комфорт 1003.5 948.7
00 20.08 С 1 10 км ясно +21.0 +6.4 39 +23 +23 комфорт 1003.4 948.7
03 20.08 СВ 1 50 км ясно +27.4 +6.8 27 +27 +32 жарко 1003.4 949.6
06 20.08 ЮВ 2 10 км 4/1 1000 м
[Cu hum Ac lent Ci fib]
+32.6 +8.0 22 +31 +42 жарко 1002.3 949.5 +19.7
09 20.08 ЮЗ 3 10 км 9/9 1000 м
[Sc]
+35.8 +6.4 16 +33 +35 жарко 1002.2 950.0
12 20.08 ЮЗ 4 10 км слабый ливневой дождь 10/10 1000 м
[Sc]
+32.4 +8.5 23 +31 +31 жарко 1004.5 951.5
15 20.08 З 2 10 км слабый ливневой дождь {метель} 10/10 1000 м
[Sc]
+26.6 +8.9 33 +27 +27 жарко 1009.0 954.9 +38.0
18 20.08 З 2 10 км {ливн. осадки} 3/0
[Ci fib]
+22.9 +12.8 53 +26 +26 жарко 1010.9 956.1 +38.0 0.0
21 20.08 СВ 1 10 км 3/0
[Ci fib]
+21.7 +12.5 56 +24 +24 комфорт 1010.8 955.8

 

Местоположение метеостанции Ташкент (Ташкентская область, Узбекистан): широта 41.27 долгота 69.27 высота над уровнем моря 466 м.

В архиве по умолчанию представлена погода в Ташкенте за последнюю неделю. Архивные данные за месяц целиком и за предыдущие месяцы, начиная с января 2011 года, Вы можете получить, выбрав интересующий диапазон дат из раскрывающегося списка и нажав кнопку "Ввод!".


*Определитесь, кто Вы:
робот инопланетянин человек

Внимание! Время в таблицах - всемирное. Для получения местного времени необходимо прибавить поправку, которая в Ташкенте равна 5 ч.

Смотрите также архив погоды в соседних городах и на ближайших метеорологических станциях:

Погода в Каунчи (Ташкентская область, Узбекистан) (31 км)
Погода в Туябугузе (Ташкентская область, Узбекистан) (37 км)
Погода в Келесе (Южно-Казахстанская область, Казахстан) (38 км)
Погода в Красноярской (Южно-Казахстанская область, Казахстан) (54 км)
Погода в Казыгурте (Южно-Казахстанская область, Казахстан) (55 км)
Погода в Дуканте (Ташкентская область, Узбекистан) (68 км)
Погода в Чимгане (Ташкентская область, Узбекистан) (70 км)
Погода в Сырдарье (Сырдарьинская область, Узбекистан) (70 км)
Погода в Ангрене (Ташкентская область, Узбекистан) (82 км)
Погода в Жетысае (Южно-Казахстанская область, Казахстан) (96 км)

Пояснения к столбцам:

Ветер - указаны скорость ветра в м/с - средняя за 10 мин, порывы в срок и между сроками (в фигурных скобках) и направление, откуда дует ветер: С - северный, СВ - северо-восточный, В - восточный, ЮВ - юго-восточный, Ю - южный, ЮЗ - юго-западный, З - западный, СЗ - северо-западный.
Видимость - горизонтальная дальность видимости в метрах или километрах. При видимости от 1 до 10 км при отсутствии осадков обычно наблюдается дымка, при ухудшении видимости до 1 км и менее - туман. В сухую погоду видимость может ухудшаться дымом, пылью или мглою.
Явления - указаны атмосферные явления, наблюдавшиеся в срок или в последний час перед сроком; фигурными скобками обозначены явления, наблюдавшиеся между сроками (за 1-3 часа до срока); квадратными скобками обозначены град или гололедные отложения с указанием их диаметра в мм.
Облачность - указаны через наклонную черту общая и нижняя облачность в баллах и высота нижней границы облаков в метрах; квадратными скобками обозначены формы облаков: Ci - перистые, Cs - перисто-слоистые, Cc - перисто-кучевые, Ac - высококучевые, As - высокослоистые, Sc - слоисто-кучевые, Ns - слоисто-дождевые, Cu - кучевые, Cb - кучево-дождевые. Подробнее классификацию облаков см. в Атласе облаков (PDF).
T - Температура воздуха - температура, измеренная на высоте 2 м над землей.
Td - Температура точки росы - температура, при понижении до которой содержащийся в воздухе водяной пар достигнет насыщения.
f - Относительная влажность воздуха - влажноcть воздуха, измеренная на высоте 2 м над землей.
Te - Эффективная температура - температура, которую ощущает одетый по сезону человек в тени. Характеристика душности погоды. При расчете учитывается влияние влажности воздуха и скорости ветра на теплоощущения человека.
Tes - Эффективная температура на солнце - температура, которую ощущает человек, с поправкой на солнечный нагрев. Характеристика знойности погоды. Зависит от высоты солнца над горизонтом, облачности и скорости ветра. Ночью, в пасмурную погоду, а также при ветре 12 м/с и более поправка равна нулю.
P - Атмосферное давление - приведенное к уровню моря атмосферное давление.
Po - Атмосферное давление - измеренное на уровне метеостанции атмосферное давление.
Tmin - Минимальная температура - минимум температуры воздуха на высоте 2 м над землей.
Tmax - Максимальная температура - максимум температуры воздуха на высоте 2 м над землей.
R - Количество осадков - Количество выпавших осадков за период времени, мм. При наведении курсора мыши на число - период времени, за который выпало указанное количество осадков.
R24 - Количество осадков - Количество выпавших осадков за 24 часа, мм.
S - Снежный покров - Высота снежного покрова, см. При наведении курсора мыши на число - состояние снежного покрова и степень покрытия местности в баллах.